Time,TemperatureF,DewpointF,PressureIn,WindDirection,WindDirectionDegrees,WindSpeedMPH,WindSpeedGustMPH,Humidity,HourlyPrecipIn,Conditions,Clouds,dailyrainin,SoftwareType,DateUTC
2013-02-05 00:11:00,7.6,4.0,29.96,WNW,287,0.0,0.0,84,0.00,,,0.00,weatherlink.com 1.10,2013-02-05 06:11:00,
2013-02-05 00:26:00,7.2,3.0,29.96,WNW,287,0.0,0.0,84,0.00,,,0.00,weatherlink.com 1.10,2013-02-05 06:26:00,
2013-02-05 00:41:00,7.0,3.0,29.95,WNW,287,0.0,0.0,85,0.00,,,0.00,weatherlink.com 1.10,2013-02-05 06:41:00,
2013-02-05 00:56:00,6.6,3.0,29.94,WNW,287,0.0,0.0,85,0.00,,,0.00,weatherlink.com 1.10,2013-02-05 06:56:00,
2013-02-05 01:11:00,5.6,2.0,29.94,WNW,287,0.0,0.0,85,0.00,,,0.00,weatherlink.com 1.10,2013-02-05 07:11:00,
2013-02-05 01:26:00,5.2,2.0,29.94,WNW,287,0.0,0.0,86,0.00,,,0.00,weatherlink.com 1.10,2013-02-05 07:26:00,
2013-02-05 01:41:00,5.5,3.0,29.93,WNW,287,0.0,0.0,87,0.00,,,0.00,weatherlink.com 1.10,2013-02-05 07:41:00,
2013-02-05 01:56:00,4.8,2.0,29.93,WNW,287,0.0,0.0,86,0.00,,,0.00,weatherlink.com 1.10,2013-02-05 07:56:00,
2013-02-05 02:11:00,5.5,3.0,29.93,West,278,1.0,2.0,88,0.00,,,0.00,weatherlink.com 1.10,2013-02-05 08:11:00,
2013-02-05 02:26:00,5.8,3.0,29.93,West,274,0.0,2.0,86,0.00,,,0.00,weatherlink.com 1.10,2013-02-05 08:26:00,
2013-02-05 02:41:00,5.6,2.0,29.92,WSW,248,0.0,1.0,86,0.00,,,0.00,weatherlink.com 1.10,2013-02-05 08:41:00,
2013-02-05 02:56:00,5.4,2.0,29.92,West,261,0.0,0.0,86,0.00,,,0.00,weatherlink.com 1.10,2013-02-05 08:56:00,
2013-02-05 03:11:00,5.7,2.0,29.92,WSW,245,0.0,3.0,86,0.00,,,0.00,weatherlink.com 1.10,2013-02-05 09:11:00,
2013-02-05 03:26:00,6.4,3.0,29.92,West,266,0.0,2.0,86,0.00,,,0.00,weatherlink.com 1.10,2013-02-05 09:26:00,
2013-02-05 03:41:00,6.7,3.0,29.92,WSW,252,0.0,3.0,84,0.00,,,0.00,weatherlink.com 1.10,2013-02-05 09:41:00,
2013-02-05 03:56:00,6.7,3.0,29.91,WSW,238,0.0,1.0,83,0.00,,,0.00,weatherlink.com 1.10,2013-02-05 09:56:00,
2013-02-05 04:11:00,7.5,4.0,29.91,WSW,252,0.0,1.0,84,0.00,,,0.00,weatherlink.com 1.10,2013-02-05 10:11:00,
2013-02-05 04:26:00,8.5,4.0,29.90,WSW,238,0.0,1.0,83,0.00,,,0.00,weatherlink.com 1.10,2013-02-05 10:26:00,
2013-02-05 04:42:00,9.1,5.0,29.90,SW,225,0.0,1.0,82,0.00,,,0.00,weatherlink.com 1.10,2013-02-05 10:42:00,
2013-02-05 04:57:00,9.8,5.0,29.90,WSW,238,0.0,2.0,81,0.00,,,0.00,weatherlink.com 1.10,2013-02-05 10:57:00,
2013-02-05 05:11:00,10.4,6.0,29.89,West,280,0.0,2.0,81,0.00,,,0.00,weatherlink.com 1.10,2013-02-05 11:11:00,
2013-02-05 05:26:00,10.9,6.0,29.89,SE,142,0.0,3.0,81,0.00,,,0.00,weatherlink.com 1.10,2013-02-05 11:26:00,
2013-02-05 05:41:00,-999.0,-99.9,29.88,North,-999,-999.0,-999.0,-999,0.00,,,0.00,weatherlink.com 1.10,2013-02-05 11:41:00,
2013-02-05 05:56:00,-999.0,-99.9,29.87,North,-999,-999.0,-999.0,-999,0.00,,,0.00,weatherlink.com 1.10,2013-02-05 11:56:00,
2013-02-05 06:12:00,-999.0,-99.9,29.86,North,-999,-999.0,-999.0,-999,0.00,,,0.00,weatherlink.com 1.10,2013-02-05 12:12:00,
2013-02-05 06:27:00,-999.0,-99.9,29.85,North,-999,-999.0,-999.0,-999,0.00,,,0.00,weatherlink.com 1.10,2013-02-05 12:27:00,
2013-02-05 06:42:00,-999.0,-99.9,29.84,North,-999,-999.0,-999.0,-999,0.00,,,0.00,weatherlink.com 1.10,2013-02-05 12:42:00,
2013-02-05 06:57:00,-999.0,-99.9,29.85,North,-999,-999.0,-999.0,-999,0.00,,,0.00,weatherlink.com 1.10,2013-02-05 12:57:00,
2013-02-05 07:12:00,-999.0,-99.9,29.85,North,-999,-999.0,-999.0,-999,0.00,,,0.00,weatherlink.com 1.10,2013-02-05 13:12:00,
2013-02-05 07:27:00,-999.0,-99.9,29.85,North,-999,-999.0,-999.0,-999,0.00,,,0.00,weatherlink.com 1.10,2013-02-05 13:27:00,
2013-02-05 07:42:00,-999.0,-99.9,29.85,North,-999,-999.0,-999.0,-999,0.00,,,0.00,weatherlink.com 1.10,2013-02-05 13:42:00,
2013-02-05 07:57:00,-999.0,-99.9,29.84,North,-999,-999.0,-999.0,-999,0.00,,,0.00,weatherlink.com 1.10,2013-02-05 13:57:00,
2013-02-05 08:12:00,-999.0,-99.9,29.83,North,-999,-999.0,-999.0,-999,0.00,,,0.00,weatherlink.com 1.10,2013-02-05 14:12:00,
2013-02-05 08:28:00,17.8,15.0,29.83,SW,222,1.0,5.0,89,0.00,,,0.00,weatherlink.com 1.10,2013-02-05 14:28:00,
2013-02-05 08:42:00,18.8,16.0,29.83,SSE,162,1.0,5.0,88,0.00,,,0.00,weatherlink.com 1.10,2013-02-05 14:42:00,
2013-02-05 08:57:00,19.8,17.0,29.83,WSW,253,3.0,5.0,88,0.00,,,0.00,weatherlink.com 1.10,2013-02-05 14:57:00,
2013-02-05 09:12:00,20.6,17.0,29.82,West,262,3.0,8.0,87,0.00,,,0.00,weatherlink.com 1.10,2013-02-05 15:12:00,
2013-02-05 09:28:00,21.1,17.0,29.82,West,263,3.0,12.0,85,0.00,,,0.00,weatherlink.com 1.10,2013-02-05 15:28:00,
2013-02-05 09:42:00,21.5,18.0,29.82,SW,221,2.0,7.0,86,0.00,,,0.00,weatherlink.com 1.10,2013-02-05 15:42:00,
2013-02-05 09:57:00,21.7,18.0,29.82,West,259,4.0,8.0,84,0.00,,,0.00,weatherlink.com 1.10,2013-02-05 15:57:00,
2013-02-05 10:12:00,21.2,18.0,29.82,SSW,200,2.0,13.0,87,0.00,,,0.00,weatherlink.com 1.10,2013-02-05 16:12:00,
2013-02-05 10:27:00,21.5,19.0,29.82,WSW,248,4.0,8.0,89,0.00,,,0.00,weatherlink.com 1.10,2013-02-05 16:27:00,
2013-02-05 10:42:00,21.7,19.0,29.81,SW,231,4.0,10.0,90,0.00,,,0.00,weatherlink.com 1.10,2013-02-05 16:42:00,
2013-02-05 10:58:00,22.3,20.0,29.81,West,278,3.0,8.0,90,0.00,,,0.00,weatherlink.com 1.10,2013-02-05 16:58:00,
2013-02-05 11:13:00,22.3,20.0,29.82,WSW,250,3.0,9.0,91,0.00,,,0.00,weatherlink.com 1.10,2013-02-05 17:13:00,
2013-02-05 11:28:00,22.4,21.0,29.82,SSW,204,3.0,7.0,92,0.00,,,0.00,weatherlink.com 1.10,2013-02-05 17:28:00,
2013-02-05 11:43:00,22.9,21.0,29.82,WSW,238,3.0,11.0,93,0.00,,,0.00,weatherlink.com 1.10,2013-02-05 17:43:00,
2013-02-05 11:58:00,23.5,22.0,29.81,West,277,2.0,8.0,93,0.00,,,0.00,weatherlink.com 1.10,2013-02-05 17:58:00,
2013-02-05 12:13:00,24.0,22.0,29.82,WNW,283,4.0,7.0,92,0.00,,,0.00,weatherlink.com 1.10,2013-02-05 18:13:00,
2013-02-05 12:28:00,24.3,22.0,29.81,West,278,7.0,7.0,92,0.00,,,0.00,weatherlink.com 1.10,2013-02-05 18:28:00,
2013-02-05 12:43:00,25.0,23.0,29.81,West,262,3.0,9.0,91,0.00,,,0.00,weatherlink.com 1.10,2013-02-05 18:43:00,
2013-02-05 12:58:00,25.1,23.0,29.81,West,268,5.0,7.0,91,0.00,,,0.00,weatherlink.com 1.10,2013-02-05 18:58:00,
2013-02-05 13:13:00,25.6,23.0,29.81,WNW,293,4.0,8.0,91,0.00,,,0.00,weatherlink.com 1.10,2013-02-05 19:13:00,
2013-02-05 13:28:00,25.7,24.0,29.82,WNW,293,3.0,9.0,91,0.00,,,0.00,weatherlink.com 1.10,2013-02-05 19:28:00,
2013-02-05 13:43:00,26.0,23.0,29.82,WNW,295,3.0,7.0,89,0.00,,,0.00,weatherlink.com 1.10,2013-02-05 19:43:00,
2013-02-05 13:58:00,25.9,23.0,29.83,West,267,6.0,8.0,88,0.00,,,0.00,weatherlink.com 1.10,2013-02-05 19:58:00,
2013-02-05 14:13:00,26.3,23.0,29.83,WNW,286,6.0,8.0,88,0.00,,,0.00,weatherlink.com 1.10,2013-02-05 20:13:00,
2013-02-05 14:28:00,26.5,23.0,29.84,West,275,4.0,8.0,87,0.00,,,0.00,weatherlink.com 1.10,2013-02-05 20:28:00,
2013-02-05 14:43:00,27.0,23.0,29.84,West,274,3.0,9.0,86,0.00,,,0.00,weatherlink.com 1.10,2013-02-05 20:43:00,
2013-02-05 14:58:00,27.4,24.0,29.86,West,260,3.0,7.0,85,0.00,,,0.00,weatherlink.com 1.10,2013-02-05 20:58:00,
2013-02-05 15:13:00,27.7,24.0,29.86,WNW,283,3.0,6.0,85,0.00,,,0.00,weatherlink.com 1.10,2013-02-05 21:13:00,
2013-02-05 15:29:00,28.0,24.0,29.87,WNW,300,3.0,5.0,85,0.00,,,0.00,weatherlink.com 1.10,2013-02-05 21:29:00,
2013-02-05 15:43:00,28.3,24.0,29.88,WNW,302,4.0,7.0,84,0.00,,,0.00,weatherlink.com 1.10,2013-02-05 21:43:00,
2013-02-05 15:58:00,28.6,25.0,29.88,West,277,3.0,6.0,85,0.00,,,0.00,weatherlink.com 1.10,2013-02-05 21:58:00,
2013-02-05 16:13:00,28.6,24.0,29.89,WNW,293,4.0,9.0,84,0.00,,,0.00,weatherlink.com 1.10,2013-02-05 22:13:00,
2013-02-05 16:28:00,28.6,24.0,29.90,NW,308,3.0,6.0,84,0.00,,,0.00,weatherlink.com 1.10,2013-02-05 22:28:00,
2013-02-05 16:44:00,28.6,24.0,29.91,WNW,302,5.0,7.0,84,0.00,,,0.00,weatherlink.com 1.10,2013-02-05 22:44:00,
2013-02-05 16:58:00,28.6,24.0,29.91,West,275,3.0,5.0,84,0.00,,,0.00,weatherlink.com 1.10,2013-02-05 22:58:00,
2013-02-05 17:13:00,28.7,25.0,29.92,WNW,284,1.0,5.0,84,0.00,,,0.00,weatherlink.com 1.10,2013-02-05 23:13:00,
2013-02-05 17:28:00,28.7,25.0,29.93,WNW,300,3.0,9.0,84,0.00,,,0.00,weatherlink.com 1.10,2013-02-05 23:28:00,
2013-02-05 17:43:00,29.1,25.0,29.94,WNW,302,6.0,8.0,84,0.00,,,0.00,weatherlink.com 1.10,2013-02-05 23:43:00,
2013-02-05 18:13:00,29.3,25.0,29.96,WSW,240,1.0,7.0,84,0.00,,,0.00,weatherlink.com 1.10,2013-02-06 00:13:00,
2013-02-05 18:28:00,29.3,25.0,29.97,WNW,293,5.0,8.0,84,0.00,,,0.00,weatherlink.com 1.10,2013-02-06 00:28:00,
2013-02-05 18:43:00,29.2,25.0,29.98,NW,307,3.0,7.0,84,0.00,,,0.00,weatherlink.com 1.10,2013-02-06 00:43:00,
2013-02-05 18:59:00,29.1,25.0,29.99,WNW,285,1.0,8.0,83,0.00,,,0.00,weatherlink.com 1.10,2013-02-06 00:59:00,
2013-02-05 19:13:00,28.8,24.0,29.99,NW,319,2.0,7.0,83,0.00,,,0.00,weatherlink.com 1.10,2013-02-06 01:13:00,
2013-02-05 19:28:00,28.4,24.0,30.00,WNW,296,4.0,8.0,82,0.00,,,0.00,weatherlink.com 1.10,2013-02-06 01:28:00,
2013-02-05 19:43:00,28.2,23.0,30.01,NNW,338,1.0,7.0,82,0.00,,,0.00,weatherlink.com 1.10,2013-02-06 01:43:00,
2013-02-05 19:58:00,28.0,23.0,30.02,NW,310,1.0,5.0,81,0.00,,,0.00,weatherlink.com 1.10,2013-02-06 01:58:00,
2013-02-05 20:13:00,27.5,22.0,30.02,ENE,68,2.0,6.0,80,0.00,,,0.00,weatherlink.com 1.10,2013-02-06 02:13:00,
2013-02-05 20:29:00,27.1,21.0,30.03,WNW,295,2.0,8.0,79,0.00,,,0.00,weatherlink.com 1.10,2013-02-06 02:29:00,
2013-02-05 20:44:00,26.9,22.0,30.04,North,8,3.0,4.0,80,0.00,,,0.00,weatherlink.com 1.10,2013-02-06 02:44:00,
2013-02-05 20:59:00,26.6,21.0,30.05,NNW,339,1.0,4.0,79,0.00,,,0.00,weatherlink.com 1.10,2013-02-06 02:59:00,
2013-02-05 21:14:00,26.2,21.0,30.05,NNW,335,1.0,5.0,79,0.00,,,0.00,weatherlink.com 1.10,2013-02-06 03:14:00,
2013-02-05 21:29:00,25.9,20.0,30.06,NNE,16,2.0,7.0,79,0.00,,,0.00,weatherlink.com 1.10,2013-02-06 03:29:00,
2013-02-05 21:44:00,25.3,20.0,30.07,NNE,20,4.0,7.0,79,0.00,,,0.00,weatherlink.com 1.10,2013-02-06 03:44:00,
2013-02-05 21:59:00,24.9,19.0,30.07,NNE,16,1.0,5.0,78,0.00,,,0.00,weatherlink.com 1.10,2013-02-06 03:59:00,
2013-02-05 22:14:00,24.5,19.0,30.08,North,8,2.0,5.0,78,0.00,,,0.00,weatherlink.com 1.10,2013-02-06 04:14:00,
2013-02-05 22:29:00,24.1,18.0,30.08,NNE,25,2.0,6.0,78,0.00,,,0.00,weatherlink.com 1.10,2013-02-06 04:29:00,
2013-02-05 22:44:00,23.6,18.0,30.09,NNE,22,1.0,5.0,78,0.00,,,0.00,weatherlink.com 1.10,2013-02-06 04:44:00,
2013-02-05 22:59:00,22.9,17.0,30.10,NNE,24,0.0,2.0,79,0.00,,,0.00,weatherlink.com 1.10,2013-02-06 04:59:00,
2013-02-05 23:14:00,22.2,17.0,30.10,NE,38,0.0,2.0,79,0.00,,,0.00,weatherlink.com 1.10,2013-02-06 05:14:00,
2013-02-05 23:29:00,21.2,16.0,30.11,NNE,16,0.0,1.0,81,0.00,,,0.00,weatherlink.com 1.10,2013-02-06 05:29:00,
2013-02-05 23:44:00,20.9,16.0,30.11,NNE,32,0.0,1.0,81,0.00,,,0.00,weatherlink.com 1.10,2013-02-06 05:44:00,
2013-02-05 23:59:00,20.1,15.0,30.12,NNE,32,0.0,0.0,81,0.00,,,0.00,weatherlink.com 1.10,2013-02-06 05:59:00,